Back to catalog

STARLINK-36259

AliveCommunicationsVLEO
NORAD 67106·PAYLOAD·🇺🇸 United States

Launched Dec 15, 2025 from Cape Canaveral Space Force Station

Loading…

Next Passes (next 24 hours)

TLE

FreshSource: CelesTrak SupGP

Epoch: Sep 14, 2026, 14:53 UTC

1 67106C 25299E   26257.62062500  .00025699  00000+0  93113-3 0  2577
2 67106  42.9996 181.6946 0001282 262.2539 125.6125 15.27554209    11

Track STARLINK-36259 in real time with AllMySat

Download on the App Store